Weather History for Horseshoe Bay, TX

Change the Weather History Date:

Wednesday, October 24, 2012

  Actual Average (KBMQ) Record (KBMQ)
Temperature  
Mean Temperature 76 °F -  
Max Temperature 84 °F 73 °F 88 °F (2001)
Min Temperature 69 °F 55 °F 39 °F (2005)
Cooling Degree Days 12    
Growing Degree Days 26 (Base 50)    
Moisture  
Dew Point 62 °F    
Average Humidity 66    
Maximum Humidity 83    
Minimum Humidity 42    
Precipitation  
Precipitation 0.00 in - - ()
Sea Level Pressure  
Sea Level Pressure 29.92 in    
Wind  
Wind Speed - (North)    
Max Wind Speed -    
Max Gust Speed -    
Visibility 10 miles    
Events      
Averages and records for this station are not official NWS values.
T = Trace of Precipitation, MM = Missing Value Source: NWS Daily Summary

Daily Weather History Graph

Daily Weather History Graph

Search for Another Location

Airport:

Trip Planner

Search our weather history database for the weather conditions in past years. The results will help you decide how hot, cold, wet, or windy it might be!

Date:

Astronomy

Oct. 24, 2012 Rise Set
Actual Time 6:42 AM MDT 5:52 PM MDT
Civil Twilight 6:17 AM MDT 6:16 PM MDT
Nautical Twilight 5:49 AM MDT 6:44 PM MDT
Astronomical Twilight 5:21 AM MDT 7:12 PM MDT
Moon 2:52 PM MDT (10/24) 1:58 AM MDT (10/24)
Length of Visible Light 11h 58m
Length of Day
11h 09m
Waxing Gibbous, 76% of the Moon is Illuminated
Oct 24
Waxing Gibbous
Oct 29
Full
Nov 6
Last Quarter
Nov 13
New
Nov 20
First Quarter

Hourly Weather History & Observations

Time (MDT) Temp. Heat Index Dew Point Humidity Pressure Visibility Wind Dir Wind Speed Gust Speed Precip Events Conditions
12:15 AM 69.8 °F - 64.4 °F 83% 29.95 in 10.0 mi North - - N/A   Clear
12:35 AM 69.8 °F - 64.4 °F 83% 29.95 in 10.0 mi North - - N/A   Clear
12:55 AM 69.8 °F - 64.4 °F 83% 29.95 in 10.0 mi North - - N/A   Scattered Clouds
1:15 AM 69.8 °F - 64.4 °F 83% 29.95 in 10.0 mi North - - N/A   Mostly Cloudy
1:35 AM 69.8 °F - 64.4 °F 83% 29.95 in 10.0 mi North - - N/A   Mostly Cloudy
1:55 AM 69.8 °F - 64.4 °F 83% 29.95 in 10.0 mi North - - N/A   Overcast
2:15 AM 71.6 °F - 64.4 °F 78% 29.95 in 10.0 mi North - - N/A   Overcast
2:35 AM 69.8 °F - 62.6 °F 78% 29.95 in 10.0 mi North - - N/A   Overcast
2:55 AM 71.6 °F - 62.6 °F 73% 29.94 in 10.0 mi North - - N/A   Overcast
3:15 AM 69.8 °F - 62.6 °F 78% 29.94 in 10.0 mi North - - N/A   Overcast
3:35 AM 71.6 °F - 62.6 °F 73% 29.94 in 10.0 mi North - - N/A   Overcast
3:55 AM 71.6 °F - 64.4 °F 78% 29.94 in 10.0 mi North - - N/A   Overcast
4:15 AM 69.8 °F - 64.4 °F 83% 29.94 in 10.0 mi North - - N/A   Overcast
4:35 AM 69.8 °F - 64.4 °F 83% 29.94 in 10.0 mi North - - N/A   Overcast
4:55 AM 69.8 °F - 64.4 °F 83% 29.95 in 10.0 mi North - - N/A   Overcast
5:15 AM 69.8 °F - 62.6 °F 78% 29.95 in 10.0 mi North - - N/A   Overcast
5:35 AM 69.8 °F - 64.4 °F 83% 29.95 in 10.0 mi North - - N/A   Overcast
5:55 AM 69.8 °F - 64.4 °F 83% 29.95 in 10.0 mi North - - N/A   Overcast
6:15 AM 69.8 °F - 64.4 °F 83% 29.95 in 10.0 mi North - - N/A   Overcast
6:35 AM 69.8 °F - 64.4 °F 83% 29.96 in 10.0 mi North - - N/A   Overcast
6:55 AM 69.8 °F - 64.4 °F 83% 29.97 in 10.0 mi North - - N/A   Overcast
7:15 AM 69.8 °F - 64.4 °F 83% 29.97 in 10.0 mi North - - N/A   Overcast
7:35 AM 69.8 °F - 64.4 °F 83% 29.98 in 10.0 mi North - - N/A   Overcast
7:55 AM 69.8 °F - 64.4 °F 83% 29.98 in 10.0 mi North - - N/A   Mostly Cloudy
8:35 AM 71.6 °F - 64.4 °F 78% 29.99 in 10.0 mi North - - N/A   Overcast
8:55 AM 73.4 °F - 62.6 °F 69% 30.00 in 10.0 mi North - - N/A   Overcast
9:15 AM 73.4 °F - 62.6 °F 69% 29.99 in 10.0 mi North - - N/A   Mostly Cloudy
9:35 AM 73.4 °F - 62.6 °F 69% 30.00 in 10.0 mi North - - N/A   Mostly Cloudy
9:55 AM 73.4 °F - 62.6 °F 69% 30.00 in 10.0 mi North - - N/A   Mostly Cloudy
10:15 AM 77.0 °F - 62.6 °F 61% 29.99 in 10.0 mi North - - N/A   Scattered Clouds
10:35 AM 77.0 °F - 62.6 °F 61% 29.99 in 10.0 mi North - - N/A   Scattered Clouds
10:55 AM 77.0 °F - 62.6 °F 61% 29.98 in 10.0 mi North - - N/A   Scattered Clouds
11:15 AM 78.8 °F - 60.8 °F 54% 29.98 in 10.0 mi North - - N/A   Scattered Clouds
11:35 AM 80.6 °F 81.5 °F 60.8 °F 51% 29.97 in 10.0 mi North - - N/A   Scattered Clouds
11:55 AM 78.8 °F - 60.8 °F 54% 29.95 in 10.0 mi North - - N/A   Clear
12:15 PM 80.6 °F 81.1 °F 59.0 °F 48% 29.94 in 10.0 mi North - - N/A   Clear
12:35 PM 80.6 °F 81.1 °F 59.0 °F 48% 29.93 in 10.0 mi North - - N/A   Clear
12:55 PM 82.4 °F 82.5 °F 59.0 °F 45% 29.92 in 10.0 mi North - - N/A   Clear
1:15 PM 82.4 °F 82.5 °F 59.0 °F 45% 29.91 in 10.0 mi North - - N/A   Clear
1:35 PM 82.4 °F 82.0 °F 57.2 °F 42% 29.90 in 10.0 mi North - - N/A   Clear
1:55 PM 82.4 °F 82.0 °F 57.2 °F 42% 29.89 in 10.0 mi North - - N/A   Clear
2:15 PM 84.2 °F 83.8 °F 59.0 °F 42% 29.88 in 10.0 mi North - - N/A   Clear
2:35 PM 82.4 °F 82.5 °F 59.0 °F 45% 29.88 in 10.0 mi North - - N/A   Clear
2:55 PM 82.4 °F 82.5 °F 59.0 °F 45% 29.87 in 10.0 mi North - - N/A   Clear
3:15 PM 80.6 °F 81.1 °F 59.0 °F 48% 29.87 in 10.0 mi North - - N/A   Clear
3:35 PM 82.4 °F 82.5 °F 59.0 °F 45% 29.86 in 10.0 mi North - - N/A   Clear
3:55 PM 82.4 °F 82.5 °F 59.0 °F 45% 29.86 in 10.0 mi North - - N/A   Clear
4:15 PM 82.4 °F 82.5 °F 59.0 °F 45% 29.86 in 10.0 mi North - - N/A   Clear
4:35 PM 82.4 °F 82.9 °F 60.8 °F 48% 29.86 in 10.0 mi North - - N/A   Clear
4:55 PM 82.4 °F 82.5 °F 59.0 °F 45% 29.86 in 10.0 mi North - - N/A   Clear
5:15 PM 80.6 °F 81.1 °F 59.0 °F 48% 29.86 in 10.0 mi North - - N/A   Clear
5:35 PM 78.8 °F - 60.8 °F 54% 29.86 in 10.0 mi North - - N/A   Clear
5:55 PM 77.0 °F - 59.0 °F 54% 29.86 in 10.0 mi North - - N/A   Clear
6:15 PM 77.0 °F - 59.0 °F 54% 29.86 in 10.0 mi North - - N/A   Clear
6:55 PM 73.4 °F - 60.8 °F 65% 29.87 in 10.0 mi North - - N/A   Clear
7:15 PM 73.4 °F - 59.0 °F 61% 29.88 in 10.0 mi North - - N/A   Clear
7:35 PM 73.4 °F - 59.0 °F 61% 29.87 in 10.0 mi North - - N/A   Clear
7:55 PM 73.4 °F - 59.0 °F 61% 29.87 in 10.0 mi North - - N/A   Clear
8:15 PM 73.4 °F - 59.0 °F 61% 29.87 in 10.0 mi North - - N/A   Clear
8:35 PM 71.6 °F - 59.0 °F 64% 29.87 in 10.0 mi North - - N/A   Clear
8:55 PM 71.6 °F - 59.0 °F 64% 29.87 in 10.0 mi North - - N/A   Clear
9:15 PM 71.6 °F - 60.8 °F 69% 29.88 in 10.0 mi North - - N/A   Clear
9:35 PM 71.6 °F - 60.8 °F 69% 29.88 in 10.0 mi North - - N/A   Clear
9:55 PM 71.6 °F - 62.6 °F 73% 29.88 in 10.0 mi North - - N/A   Clear
10:15 PM 71.6 °F - 62.6 °F 73% 29.87 in 10.0 mi North - - N/A   Clear
10:35 PM 71.6 °F - 62.6 °F 73% 29.87 in 10.0 mi North - - N/A   Clear
10:55 PM 71.6 °F - 62.6 °F 73% 29.88 in 10.0 mi North - - N/A   Clear
11:35 PM 69.8 °F - 62.6 °F 78% 29.87 in 10.0 mi North - - N/A   Clear
11:55 PM 69.8 °F - 62.6 °F 78% 29.86 in 10.0 mi North - - N/A   Clear